Theta_e
327 322 320 315 313 312 311 310 311 311 310 309 308 308 309 311 312 312 313 313 311 309 307 306 311 317 322 323 322 330 332 335 334 335 334 335 334 333 331 331 330 331 331
329 326 323 318 315 313 312 311 310 310 311 310 309 307 307 307 308 308 308 308 308 306 305 305 306 308 312 314 316 318 324 332 333 333 332 333 331 331 330 331 332 331 331
334 331 327 322 320 317 313 312 311 310 310 310 310 309 308 307 306 306 306 306 306 305 305 305 304 303 303 304 305 308 311 315 324 331 331 331 331 331 331 331 328 330 332
337 335 332 329 324 322 318 315 312 311 311 310 310 310 309 308 307 306 306 306 306 306 305 305 304 302 302 302 302 302 302 303 305 311 318 327 330 330 328 327 328 330 330
338 336 333 330 326 324 323 319 315 312 311 311 310 310 309 309 308 307 307 306 306 306 306 305 304 304 302 301 301 301 302 302 302 302 302 304 309 317 323 328 324 324 324
335 336 335 330 325 322 320 320 320 316 313 312 311 310 309 309 309 308 308 307 306 306 306 305 305 305 304 303 302 301 301 301 302 302 302 302 302 302 303 307 318 326 323
327 331 334 331 327 324 321 318 317 316 317 314 311 311 310 309 309 309 309 308 307 306 305 306 305 305 304 303 302 302 302 303 302 302 302 302 302 302 302 302 302 303 311
316 320 322 326 327 322 322 319 317 315 317 316 313 311 309 310 310 309 309 309 308 306 305 306 305 305 304 303 303 303 303 302 303 303 301 301 301 301 301 301 301 302 302
306 310 313 317 323 320 317 317 315 314 314 316 314 312 309 309 309 309 309 309 308 307 305 305 306 305 304 304 303 303 303 303 302 301 302 302 302 301 301 301 301 301 301
303 304 305 308 312 315 317 318 313 314 313 313 314 313 313 312 309 309 309 309 308 308 306 306 306 305 304 304 304 303 303 302 302 301 302 302 305 306 304 303 302 301 301
305 304 304 304 304 306 311 314 315 313 312 312 312 313 314 312 311 309 309 308 309 308 308 307 306 306 305 304 304 304 302 302 301 301 301 301 303 306 309 309 309 309 310
305 304 303 304 304 304 305 307 311 313 316 314 312 312 312 314 314 312 310 310 309 308 307 307 306 306 305 305 304 304 303 302 301 301 301 301 301 302 308 309 310 311 311
301 302 301 303 304 304 304 305 307 309 311 314 316 314 312 312 313 314 311 310 309 308 307 307 306 305 305 304 304 304 303 301 300 300 300 301 301 304 308 310 310 310 310
300 302 301 303 306 304 303 303 305 308 309 310 312 316 315 314 312 312 313 311 309 308 307 307 306 305 304 304 304 304 302 300 299 299 300 301 301 301 301 305 306 307 308
299 301 302 307 305 304 303 303 305 307 308 309 310 313 315 315 314 312 312 312 311 308 308 307 306 305 303 303 303 303 300 299 299 299 299 300 300 301 300 300 300 304 306
299 300 302 302 302 303 303 302 305 305 308 309 311 312 313 314 314 313 311 312 311 310 308 307 306 304 303 302 302 300 299 298 298 299 300 301 301 300 299 298 298 299 299
299 298 301 302 302 302 301 301 303 305 305 308 310 311 311 312 313 314 312 310 311 310 308 307 305 304 302 300 299 299 299 298 298 299 300 300 300 299 298 297 297 298 298
299 300 301 301 301 302 301 304 305 305 303 303 308 309 310 310 310 311 312 310 311 310 309 307 305 304 303 301 300 299 299 298 299 299 299 299 299 298 298 298 297 298 298
298 298 299 299 300 301 305 306 304 305 304 301 303 308 309 309 310 310 310 311 310 310 309 307 305 304 302 301 300 299 298 298 298 298 299 299 298 297 298 298 298 298 298
299 299 299 300 303 304 303 302 301 302 302 302 300 303 306 309 309 309 309 311 310 309 308 307 305 303 302 301 300 299 298 298 298 299 299 298 297 297 297 297 297 297 298
298 299 298 301 303 301 299 300 300 299 299 299 300 301 304 307 309 310 311 311 310 308 307 306 304 303 302 301 300 299 298 298 299 299 298 297 296 296 296 297 299 300 301
298 299 298 300 300 299 298 301 300 299 299 301 302 302 303 306 308 310 311 312 310 309 307 306 305 303 302 301 299 299 299 300 299 298 297 296 296 298 305 306 306 306 306
298 298 298 299 299 299 298 299 299 300 301 302 303 305 303 304 307 309 308 308 308 309 307 307 305 303 301 300 299 299 299 299 298 297 297 296 296 300 307 308 308 308 307
297 298 298 299 299 298 297 297 299 300 301 302 303 304 302 305 308 309 310 307 307 307 305 304 302 301 300 300 300 299 299 298 297 296 296 296 300 307 308 309 310 310 309
297 297 298 298 297 296 295 295 298 300 301 301 302 302 302 307 308 308 309 306 306 305 304 303 301 300 300 301 300 299 298 299 296 296 295 298 308 308 308 307 307 306 305
297 297 297 296 296 295 295 296 299 300 300 301 302 302 305 307 308 308 307 305 306 304 303 301 301 300 301 300 299 298 297 296 295 298 307 306 307 306 304 306 308 307 305
Wind_Speed
16 18 17 16 15 14 13 11 10 10 10 11 11 12 12 13 13 13 13 13 13 12 11 10 10 12 12 16 11 13 14 12 13 11 9 10 9 8 4 5 6 5 5
16 16 18 18 18 17 15 14 13 13 12 12 12 12 12 13 13 14 14 14 14 13 12 11 12 12 14 16 14 15 16 17 16 16 14 12 12 10 9 11 11 8 9
21 18 18 19 18 17 18 18 17 17 16 15 14 14 14 14 15 15 15 15 14 14 13 12 12 13 15 15 15 15 17 19 20 20 19 17 17 16 13 12 16 12 13
27 26 21 19 17 18 19 19 20 20 19 18 17 16 16 16 16 17 17 16 15 14 14 13 12 13 13 14 14 14 14 16 18 20 22 24 23 21 22 22 20 15 17
31 31 30 25 23 21 20 20 21 22 22 21 19 19 19 19 19 18 18 17 16 16 15 14 13 13 13 14 13 14 14 15 15 16 18 20 22 24 25 25 23 23 23
31 31 33 33 30 28 27 25 23 22 24 23 22 22 22 22 22 22 21 21 19 19 17 16 15 14 13 14 15 15 15 15 15 17 17 18 18 19 20 23 25 25 25
23 29 33 33 34 34 31 30 29 25 24 24 24 25 27 26 26 25 24 24 24 21 20 18 17 16 14 12 11 12 12 12 13 17 16 18 19 19 19 20 21 23 25
12 17 23 30 35 35 37 35 34 33 30 27 27 27 26 25 29 27 26 27 27 24 23 21 20 18 16 14 12 11 11 11 11 13 15 15 18 19 20 20 20 21 22
15 15 15 18 28 34 37 38 39 39 38 34 31 25 11 14 18 19 18 20 24 26 25 23 22 20 18 16 15 14 13 12 12 14 15 13 14 16 18 20 21 21 22
18 17 18 19 18 19 28 36 39 44 42 42 37 35 34 32 21 17 20 19 18 21 23 24 23 22 20 19 17 16 15 15 16 15 15 15 14 14 14 17 18 20 21
19 19 19 18 18 21 23 24 29 38 43 43 46 42 38 37 35 35 33 30 29 26 22 24 25 24 23 22 20 18 17 18 18 17 17 17 16 15 14 13 13 14 15
24 24 24 23 21 19 20 23 24 27 34 41 45 47 47 41 38 37 37 37 35 31 25 23 26 27 26 24 22 20 20 20 20 20 20 19 18 17 16 15 15 15 16
27 26 24 23 23 23 23 22 24 27 29 34 41 46 47 49 46 38 35 33 33 30 29 26 25 27 28 27 25 23 23 23 22 22 22 21 21 20 18 18 18 17 18
25 24 23 23 22 24 23 24 27 28 30 32 34 39 44 48 47 47 40 36 34 33 31 30 26 26 28 28 27 26 26 24 23 24 24 24 25 25 25 24 23 23 22
26 26 21 20 22 24 24 23 26 29 29 32 35 34 39 43 46 45 46 40 36 34 34 33 29 26 24 27 28 28 27 24 24 25 27 28 28 28 28 29 29 27 24
28 23 22 21 23 23 24 22 24 25 29 29 32 36 35 36 42 42 44 43 40 36 36 32 25 22 22 26 28 28 26 24 25 26 27 28 28 29 30 29 31 32 30
30 28 23 21 22 23 24 25 26 26 26 30 28 31 34 34 37 38 40 43 41 37 36 35 31 25 22 22 23 24 25 26 25 26 27 29 30 30 31 33 34 32 31
30 27 24 24 26 27 25 23 25 27 27 27 30 30 32 33 36 34 36 40 42 39 36 35 32 30 27 25 25 26 27 27 27 28 28 30 31 30 31 31 30 29 28
33 30 30 32 30 26 22 22 23 28 30 29 28 31 34 33 34 36 32 35 40 41 36 34 32 29 27 27 27 27 28 28 29 29 30 30 30 30 30 31 30 29 28
34 32 32 29 23 20 24 28 29 31 34 35 33 31 34 35 34 35 34 31 37 42 39 35 33 30 29 28 27 28 29 28 29 29 30 31 30 30 32 31 31 31 30
34 31 33 29 29 31 32 35 34 33 36 38 35 32 31 35 36 32 33 35 35 42 41 37 34 33 31 29 28 26 28 28 29 30 32 30 29 29 28 29 31 32 33
33 32 33 32 35 35 31 33 32 35 36 37 38 34 32 34 35 34 36 32 33 41 42 38 35 34 32 28 24 24 26 27 31 30 29 26 29 30 27 26 26 27 27
32 32 32 32 36 36 30 34 33 32 33 36 37 37 32 35 34 33 33 28 28 33 39 32 33 30 28 25 22 23 25 28 31 31 34 36 33 34 27 26 26 26 26
32 31 32 33 36 36 37 37 31 31 36 38 39 40 34 35 34 33 29 29 31 31 36 31 28 23 24 23 22 22 25 28 32 33 32 38 32 35 33 34 29 27 25
32 35 30 33 37 43 41 38 30 31 36 37 40 42 33 37 35 35 28 35 31 30 31 27 24 22 23 21 21 23 25 27 35 36 34 37 35 34 32 31 27 21 21
31 29 33 36 41 46 40 33 29 34 39 38 40 40 31 38 34 29 28 34 32 32 31 28 23 21 20 21 22 23 25 30 34 36 30 26 30 26 18 21 21 25 20
Wind_Direction
272 277 278 274 270 267 264 264 266 267 267 265 262 262 262 263 263 264 265 269 273 276 281 267 251 240 235 241 231 224 225 213 224 228 231 227 229 226 247 263 275 294 327
272 276 278 277 273 273 268 266 267 267 268 267 264 263 263 265 265 267 269 271 273 276 278 272 258 251 247 248 245 235 231 228 226 229 226 232 236 247 245 247 257 240 264
268 266 272 274 276 273 271 267 267 268 268 270 268 269 269 268 269 268 268 270 272 275 277 271 261 254 253 253 252 246 241 239 236 232 235 235 234 232 240 244 256 261 258
262 264 263 269 268 269 272 270 268 268 269 269 268 269 271 269 269 271 269 269 269 270 270 273 264 256 254 252 250 247 244 243 242 241 240 239 237 238 239 239 239 241 254
257 257 258 260 259 257 267 272 270 269 269 269 268 267 269 271 272 270 268 267 267 265 263 266 264 260 254 252 250 248 244 245 245 244 243 243 244 243 243 241 245 243 248
260 257 255 255 256 255 257 262 271 272 271 270 266 265 266 270 272 272 272 267 264 263 261 261 261 260 260 257 249 248 251 247 248 246 247 247 246 246 246 244 243 244 246
269 263 254 255 256 254 255 260 266 266 272 270 265 267 266 268 270 271 272 269 263 260 259 258 257 256 254 253 248 245 247 255 252 252 249 252 250 248 248 248 247 246 246
300 284 271 261 253 254 253 253 258 261 266 265 259 265 267 274 272 271 269 267 262 257 255 256 253 253 250 251 249 249 254 250 247 262 267 257 256 253 252 252 252 251 250
304 298 294 281 260 255 253 247 253 255 259 264 261 252 241 254 270 269 265 266 263 259 255 252 251 247 245 247 246 253 253 248 256 262 263 267 266 258 252 252 254 255 255
305 306 297 288 284 274 261 253 251 250 253 257 258 255 254 255 256 269 268 270 265 262 258 251 249 245 244 245 246 250 251 254 267 258 256 262 262 264 260 260 258 256 257
305 307 309 308 295 279 275 272 260 252 250 252 254 258 258 252 254 254 266 265 268 270 267 257 250 246 246 246 247 253 256 263 268 260 261 258 255 256 258 262 265 267 268
304 304 304 304 300 294 285 276 273 267 259 252 251 254 255 254 253 253 253 261 265 268 268 263 255 250 248 248 249 254 260 269 267 265 266 261 259 258 259 261 266 268 271
300 299 298 293 293 295 294 288 277 272 268 262 254 252 253 255 258 261 260 261 260 263 264 264 259 251 248 249 251 256 265 266 265 265 265 265 263 264 260 261 264 267 268
294 294 289 277 280 289 293 289 285 275 276 268 263 257 254 253 254 254 257 254 253 257 260 260 260 256 250 250 252 257 263 262 262 263 264 263 264 266 264 264 266 266 267
294 291 285 268 274 282 287 290 288 281 277 277 268 262 259 254 255 252 252 253 250 249 255 260 261 259 252 248 251 254 256 257 262 265 265 266 266 267 268 269 269 266 264
295 292 273 274 273 274 282 289 288 285 276 277 275 268 262 258 255 253 253 249 249 248 253 257 260 256 250 247 245 247 250 256 265 265 265 265 266 269 272 269 269 267 265
295 290 283 275 271 279 280 280 282 283 287 276 281 275 268 265 260 257 253 248 245 242 244 250 250 247 247 242 238 240 250 264 266 265 265 268 271 271 270 270 268 266 266
297 295 282 278 280 283 284 267 276 278 284 286 275 276 274 270 265 259 255 252 245 242 239 245 245 246 247 244 244 249 258 264 266 267 272 275 275 274 273 271 268 265 262
293 292 288 289 288 284 273 270 275 277 283 285 281 270 268 270 267 258 254 251 245 240 238 239 241 243 243 243 245 251 259 263 268 274 276 274 273 274 273 271 269 265 261
292 291 292 293 285 282 282 286 287 283 284 286 279 275 266 263 264 259 254 246 246 237 232 232 235 239 240 242 245 253 260 266 272 275 274 275 276 277 274 272 267 264 262
285 287 291 280 277 283 284 287 292 291 286 283 274 269 270 260 260 260 255 240 245 237 229 227 231 236 240 240 246 259 266 274 275 276 277 276 278 271 268 267 266 264 262
281 284 289 277 282 294 283 281 287 288 283 279 276 271 267 264 256 253 252 242 241 236 228 226 230 236 244 246 251 261 270 274 281 282 283 284 281 277 276 268 260 260 258
283 280 286 277 285 292 288 283 286 279 277 270 267 270 268 263 259 248 236 233 239 236 236 236 234 240 244 248 255 260 268 275 276 280 287 288 286 288 280 277 270 261 251
282 284 283 277 285 289 291 291 284 274 272 272 262 267 271 259 254 243 245 233 230 224 225 226 230 235 242 250 254 269 275 276 278 284 288 284 289 288 292 292 284 270 245
285 288 279 285 288 290 295 292 283 276 273 273 262 265 262 249 247 242 241 226 220 212 220 223 225 232 241 254 267 272 272 281 286 288 289 284 288 292 292 286 276 258 244
281 285 286 287 292 294 293 287 280 275 274 265 264 266 244 245 236 223 226 219 207 206 209 213 218 231 250 264 269 270 277 279 283 287 293 282 285 279 274 279 270 260 238